Weather in Karasul'

Russia / Tyumen Oblast     56°18′12″N   68°55′47″E
temp.,
°C
wind,
m/s
gust,
m/s
humid.,
%
clouds,
%
prec.,
mm/h
press.,
hPa
HPBL,
m
27 october, wed
wed2723:00−2w510705 0.0 1021527
02:00−2wsw597180 0.0 1022447
05:00−2sw5106990 0.0 1022481
08:00−2sw597888 0.0 1022559
11:00+1wsw686035 0.0 1021752
14:00+2wsw576284 0.0 10211053
17:00+1sw3773100 0.0 1021252
20:00+1ssw497699 0.0 1021333
28 october, thu
thu2823:000ssw497396 0.0 1020257
02:00−1ssw4107473 0.0 1018274
05:00−1ssw51274100 0.0 1016368
08:000ssw61373100 0.0 1014451
11:00+1ssw71369100 0.0 1013580
14:00+3ssw71366100 0.0 1010675
17:00+2sw81565100 0.0 1009655
20:00+3wsw81462100 0.0 1009739
29 october, fri
fri2923:00+2sw7146741 0.0 1009570
02:00+2wsw71380100 0.0 1010713
05:00+2sw7147999 0.0 1010627
08:00+1sw71481100 0.0 1010574
11:00+3sw81477100 0.0 1010821
14:00+2w71296100 0.4 1011878
17:00−2wnw712655 1.1 10151041
20:00−3wnw7136474 0.0 10171311
30 october, sat
sat3023:00−4wnw8126628 0.0 10201176
02:00−4wnw7126318 0.0 10231146
05:00−5wnw711655 0.0 1025940
08:00−5w6116853 0.0 1027712
11:00−3wsw6854100 0.0 1027704
14:00−1sw61148100 0.0 1026785
17:00−2sw71450100 0.1 1023705
20:00−1sw81451100 0.5 1020972
31 october, sun
sun3123:00−3sw61392100 0.8 1019710
02:00−2w5109384 0.6 1017589
05:00−3wnw499588 0.6 1018387
08:00−3nw5989100 0.1 1020555
11:00−2nw5878100 0.1 1022846
14:00−1nw5773100 0.0 1023915
17:00−2wnw257649 0.0 1025206
20:00−4ssw238911 0.0 102640